Location: Nitra
(0.0000°N, 18.0833°E)
Time: 21:54:27
(UTC+01:00)

ISS - Visible Passes

Search period start: 02 February 2023 00:00
Search period end: 12 February 2023 00:00
Orbit: 412 x 419 km, 51.6° (Epoch: 02 February)

Date Brightness Start Highest point End Pass type
(mag) Time Alt. Az. Time Alt. Az. Time Alt. Az.
06 Feb -2.1 19:28:00 10° NNW 19:29:30 24° NNW 19:29:30 24° NNW visible
07 Feb -2.7 18:39:42 10° N 18:42:33 26° NE 18:45:24 10° ESE visible
08 Feb -1.2 19:27:36 10° WNW 19:30:15 22° SW 19:32:55 10° S visible
09 Feb -2.9 18:38:10 10° NW 18:41:27 54° SW 18:44:44 10° SSE visible
11 Feb -1.8 05:25:13 10° SSW 05:28:15 33° SE 05:31:16 10° ENE visible
11 Feb -0.2 18:39:03 10° WSW 18:40:17 12° SW 18:41:31 10° SSW visible
